, MS

(GMT )
Nakika

Weather History for KIKT - January, 2014

Change the Weather History Date:

Thursday, January 2, 2014

  Actual Average Record
Temperature  
Mean Temperature 64 °F -  
Max Temperature 73 °F - - ()
Min Temperature 53 °F - - ()
Degree Days  
Heating Degree Days 1    
Growing Degree Days 14 (Base 50)    
Moisture  
Dew Point 57 °F    
Average Humidity 78    
Maximum Humidity 94    
Minimum Humidity 47    
Precipitation  
Precipitation 0.00 in - - ()
Sea Level Pressure  
Sea Level Pressure 30.02 in    
Wind  
Wind Speed 15 mph (NW)    
Max Wind Speed 29 mph    
Max Gust Speed 44 mph    
Visibility 9 miles    
Events      
T = Trace of Precipitation, MM = Missing Value Source: NWS Daily Summary

Daily Weather History Graph

Daily Weather History Graph

Search for Another Location

Airport or City:

Trip Planner

Search our weather history database for the weather conditions in past years. The results will help you decide how hot, cold, wet, or windy it might be!

Date:

Astronomy

Jan. 02, 2014 Rise Set
Actual Time 6:46 AM CST 5:08 PM CST
Civil Twilight 6:20 AM CST 5:34 PM CST
Nautical Twilight 5:50 AM CST 6:03 PM CST
Astronomical Twilight 5:22 AM CST 6:32 PM CST
Moon 7:36 AM CST (1/2) 6:54 PM CST (1/2)
Length of Visible Light 11h 14m
Length of Day
10h 22m
Waxing Crescent, 3% of the Moon is Illuminated
Jan 2
Waxing Crescent
Jan 7
First Quarter
Jan 15
Full
Jan 23
Last Quarter
Jan 30
New

Hourly Weather History & Observations

Time (CST) Temp. Dew Point Humidity Pressure Visibility Wind Dir Wind Speed Gust Speed Precip Events Conditions
12:15 AM 69.8 °F 66.2 °F 88% 30.01 in 9.0 mi East 15.0 mph - N/A   Overcast
12:35 AM 69.8 °F 66.2 °F 88% 30.01 in 6.0 mi ESE 13.8 mph - N/A   Overcast
12:55 AM 69.8 °F 66.2 °F 88% 30.01 in 7.0 mi ESE 17.3 mph - N/A   Overcast
1:15 AM 68.0 °F 66.2 °F 94% 30.00 in 5.0 mi ESE 16.1 mph - N/A   Overcast
1:35 AM 69.8 °F 66.2 °F 88% 29.98 in 6.0 mi ESE 18.4 mph - N/A   Overcast
1:55 AM 69.8 °F 68.0 °F 94% 29.97 in 6.0 mi ESE 19.6 mph - N/A   Overcast
2:15 AM 69.8 °F 68.0 °F 94% 29.98 in 10.0 mi ESE 15.0 mph - N/A   Overcast
2:35 AM 69.8 °F 68.0 °F 94% 29.97 in 10.0 mi ESE 13.8 mph - N/A   Overcast
2:55 AM 69.8 °F 68.0 °F 94% 29.97 in 10.0 mi ESE 15.0 mph - N/A   Overcast
3:15 AM 69.8 °F 68.0 °F 94% 29.95 in 10.0 mi East 19.6 mph - N/A   Overcast
3:35 AM 69.8 °F 68.0 °F 94% 29.93 in 10.0 mi ESE 19.6 mph - N/A   Overcast
3:55 AM 69.8 °F 68.0 °F 94% 29.93 in 10.0 mi ESE 16.1 mph - N/A   Overcast
4:15 AM 69.8 °F 68.0 °F 94% 29.94 in - SE 11.5 mph - N/A   Unknown
4:35 AM 69.8 °F 68.0 °F 94% 29.94 in 10.0 mi SE 10.4 mph - N/A   Overcast
4:55 AM 69.8 °F 68.0 °F 94% 29.94 in 6.0 mi SE 10.4 mph - N/A   Mostly Cloudy
5:15 AM 69.8 °F 68.0 °F 94% 29.93 in 9.0 mi SSW 9.2 mph - N/A   Mostly Cloudy
5:35 AM 69.8 °F 68.0 °F 94% 29.91 in 10.0 mi SSW 11.5 mph - N/A   Overcast
5:55 AM 71.6 °F 68.0 °F 88% 29.92 in 10.0 mi SSW 9.2 mph 16.1 mph N/A   Overcast
6:15 AM 71.6 °F 68.0 °F 88% 29.92 in 10.0 mi Variable 5.8 mph 12.7 mph N/A   Overcast
6:35 AM 71.6 °F 68.0 °F 88% 29.93 in 10.0 mi SSW 11.5 mph 18.4 mph N/A   Overcast
6:55 AM 71.6 °F 68.0 °F 88% 29.93 in 10.0 mi SSW 9.2 mph 20.7 mph N/A   Overcast
7:15 AM 71.6 °F 68.0 °F 88% 29.93 in 9.0 mi Variable 8.1 mph 20.7 mph N/A   Overcast
7:35 AM 71.6 °F 68.0 °F 88% 29.93 in 10.0 mi Variable 5.8 mph 15.0 mph N/A   Overcast
7:55 AM 71.6 °F 68.0 °F 88% 29.94 in 10.0 mi SW 8.1 mph 18.4 mph N/A   Overcast
8:15 AM 71.6 °F 68.0 °F 88% 29.95 in 10.0 mi Variable 11.5 mph 19.6 mph N/A   Overcast
8:35 AM 71.6 °F 68.0 °F 88% 29.95 in 10.0 mi WSW 17.3 mph - N/A   Mostly Cloudy
8:55 AM 71.6 °F 68.0 °F 88% 29.96 in 10.0 mi WSW 18.4 mph - N/A   Overcast
9:15 AM 73.4 °F 68.0 °F 83% 29.97 in 10.0 mi WNW 11.5 mph 20.7 mph N/A   Overcast
9:35 AM 71.6 °F 68.0 °F 88% 29.98 in 1.0 mi WNW 11.5 mph 17.3 mph N/A   Mostly Cloudy
9:55 AM 68.0 °F 66.2 °F 94% 29.99 in 2.0 mi WNW 17.3 mph 26.5 mph N/A   Mostly Cloudy
10:15 AM 66.2 °F 64.4 °F 94% 29.99 in 3.0 mi NW 21.9 mph 31.1 mph N/A   Mostly Cloudy
10:35 AM 66.2 °F 64.4 °F 94% 29.98 in 4.0 mi NW 20.7 mph 32.2 mph N/A   Mostly Cloudy
10:55 AM 66.2 °F 62.6 °F 88% 29.97 in 5.0 mi WNW 13.8 mph 23.0 mph N/A   Mostly Cloudy
11:15 AM 66.2 °F 62.6 °F 88% 29.98 in 7.0 mi WNW 12.7 mph 24.2 mph N/A   Mostly Cloudy
11:35 AM 66.2 °F 62.6 °F 88% 29.97 in 7.0 mi WNW 17.3 mph 26.5 mph N/A   Overcast
11:55 AM 66.2 °F 62.6 °F 88% 29.97 in 9.0 mi NW 16.1 mph 29.9 mph N/A   Overcast
12:15 PM 66.2 °F 60.8 °F 83% 29.96 in 10.0 mi NW 17.3 mph 26.5 mph N/A   Overcast
12:35 PM 64.4 °F 60.8 °F 88% 29.94 in 9.0 mi WNW 16.1 mph 25.3 mph N/A   Overcast
12:55 PM 64.4 °F 60.8 °F 88% 29.92 in 9.0 mi NW 10.4 mph 25.3 mph N/A   Overcast
1:15 PM 64.4 °F 60.8 °F 88% 29.95 in 9.0 mi NW 21.9 mph 29.9 mph N/A   Overcast
1:35 PM 64.4 °F 59.0 °F 83% 29.96 in 10.0 mi NW 18.4 mph 26.5 mph N/A   Overcast
1:55 PM 64.4 °F 57.2 °F 77% 29.95 in 10.0 mi WNW 13.8 mph 26.5 mph N/A   Mostly Cloudy
2:15 PM 64.4 °F 57.2 °F 77% 29.95 in 9.0 mi WNW 12.7 mph 26.5 mph N/A   Mostly Cloudy
2:35 PM 64.4 °F 55.4 °F 73% 29.96 in 10.0 mi WNW 17.3 mph 23.0 mph N/A   Mostly Cloudy
2:55 PM 64.4 °F 55.4 °F 73% 29.99 in 10.0 mi WNW 12.7 mph 24.2 mph N/A   Mostly Cloudy
3:15 PM 64.4 °F 53.6 °F 68% 29.98 in 10.0 mi WNW 18.4 mph 27.6 mph N/A   Scattered Clouds
3:35 PM 64.4 °F 53.6 °F 68% 29.99 in 10.0 mi Variable 9.2 mph 25.3 mph N/A   Mostly Cloudy
3:55 PM 62.6 °F 53.6 °F 72% 30.00 in 10.0 mi NW 11.5 mph 25.3 mph N/A   Mostly Cloudy
4:15 PM 62.6 °F 51.8 °F 68% 30.01 in 10.0 mi WNW 17.3 mph 26.5 mph N/A   Mostly Cloudy
4:35 PM 62.6 °F 51.8 °F 68% 30.02 in 10.0 mi WNW 10.4 mph 21.9 mph N/A   Mostly Cloudy
4:55 PM 62.6 °F 53.6 °F 72% 30.03 in 9.0 mi NW 11.5 mph 21.9 mph N/A   Mostly Cloudy
5:15 PM 60.8 °F 50.0 °F 68% 30.04 in 9.0 mi WNW 10.4 mph 19.6 mph N/A   Mostly Cloudy
5:35 PM 60.8 °F 48.2 °F 63% 30.05 in 10.0 mi WNW 9.2 mph 17.3 mph N/A   Mostly Cloudy
5:55 PM 60.8 °F 48.2 °F 63% 30.06 in 10.0 mi NW 10.4 mph 23.0 mph N/A   Overcast
6:15 PM 59.0 °F 48.2 °F 67% 30.08 in 10.0 mi NW 11.5 mph 18.4 mph N/A   Overcast
6:35 PM 59.0 °F 46.4 °F 63% 30.09 in 10.0 mi North 12.7 mph 27.6 mph N/A   Overcast
6:55 PM 59.0 °F 44.6 °F 59% 30.11 in 10.0 mi Variable 10.4 mph 28.8 mph N/A   Overcast
7:15 PM 59.0 °F 44.6 °F 59% 30.13 in 10.0 mi NW 9.2 mph 25.3 mph N/A   Overcast
7:35 PM 59.0 °F 44.6 °F 59% 30.14 in 10.0 mi NNW 10.4 mph 23.0 mph N/A   Overcast
7:55 PM 57.2 °F 41.0 °F 55% 30.14 in 10.0 mi North 17.3 mph 35.7 mph N/A   Overcast
8:15 PM 57.2 °F 41.0 °F 55% 30.15 in 10.0 mi North 21.9 mph 39.1 mph N/A   Overcast
8:35 PM 57.2 °F 42.8 °F 59% 30.16 in 10.0 mi NNW 16.1 mph 29.9 mph N/A   Mostly Cloudy
8:55 PM 55.4 °F 39.2 °F 54% 30.17 in 10.0 mi NNW 13.8 mph 43.7 mph N/A   Overcast
9:15 PM 55.4 °F 39.2 °F 54% 30.18 in 10.0 mi North 28.8 mph 40.3 mph N/A   Overcast
9:35 PM 55.4 °F 39.2 °F 54% 30.19 in 10.0 mi North 16.1 mph 35.7 mph N/A   Overcast
9:55 PM 55.4 °F 35.6 °F 47% 30.20 in 10.0 mi North 24.2 mph 40.3 mph N/A   Mostly Cloudy
10:15 PM 55.4 °F 35.6 °F 47% 30.19 in 10.0 mi North 18.4 mph 39.1 mph N/A   Mostly Cloudy
10:35 PM 55.4 °F 37.4 °F 51% 30.20 in 10.0 mi NW 10.4 mph 36.8 mph N/A   Mostly Cloudy
10:55 PM 55.4 °F 39.2 °F 54% 30.21 in 10.0 mi NNW 10.4 mph 31.1 mph N/A   Mostly Cloudy
11:15 PM 55.4 °F 35.6 °F 47% 30.21 in 10.0 mi North 19.6 mph 35.7 mph N/A   Mostly Cloudy
11:35 PM 55.4 °F 35.6 °F 47% 30.22 in 10.0 mi North 13.8 mph 35.7 mph N/A   Mostly Cloudy
11:55 PM 53.6 °F 37.4 °F 54% 30.22 in 10.0 mi North 17.3 mph 35.7 mph N/A   Mostly Cloudy